Regional Weather Roundup
Issued by NWS

Home | Current Version | Previous Version | Text Only | Print | Product List | Glossary On
Versions: 1 2 3 4 5 6 7 8 9 10 11 12 13 14 15 16 17 18 19 20 21 22 23 24 25 26 27 28 29 30 31 32 33 34 35 36 37 38 39 40 41 42 43 44 45 46 47 48 49 50
000
ASUS44 KFWD 242101
RWRTX
NORTH TEXAS HOURLY WEATHER ROUNDUP
NATIONAL WEATHER SERVICE FORT WORTH TX
400 PM CDT FRI OCT 24 2014

NOTE: "FAIR" INDICATES FEW OR NO CLOUDS BELOW 12,000 FEET WITH NO
SIGNIFICANT WEATHER AND/OR OBSTRUCTIONS TO VISIBILITY.

TXZ118-119-242200-
DALLAS/FORT WORTH METROPLEX

CITY           SKY/WX    TMP DP  RH WIND       PRES   REMARKS
DFW AIRPORT    MOSUNNY   84  60  44 S10       30.07F
DALLAS LOVE    MOSUNNY   84  60  44 VRB5      30.07F
FTW MEACHAM    SUNNY     86  60  41 S6        30.06F
DAL-EXECUTIVE  SUNNY     84  60  44 S8        30.07F
FTW-ALLIANCE   MOSUNNY   85  60  42 VRB7      30.06F
FTW-NAS-JRB    MOSUNNY   89  58  34 S14       30.10F
FTW-SPINKS     MOSUNNY   84  61  45 S12       30.09F
ARLINGTON      SUNNY     84  59  42 VRB3      30.07F
GRAND PRAIRIE  SUNNY     82  63  51 MISG      30.08F
MESQUITE       SUNNY     81  57  44 S7        30.09F
LANCASTER      SUNNY     83  57  41 S3        30.09F
$$

TXZ091>094-102>105-117-120-121-131>134-242200-
NORTH CENTRAL TEXAS

CITY           SKY/WX    TMP DP  RH WIND       PRES   REMARKS
SHRMAN/DENISON SUNNY     83  64  52 SW12      30.08F
GAINESVILLE    SUNNY     82  61  49 S10       30.09S
BRIDGEPORT     SUNNY     86  61  43 S6        30.07F
DECATUR        MOSUNNY   84  57  39 S9G17     30.07F
DENTON         SUNNY     83  60  45 S10       30.06F
MCKINNEY       SUNNY     81  59  47 SW8       30.08S
ROCKWALL       SUNNY     81  61  50 S5        30.08S
TERRELL        SUNNY     81  59  47 S8        30.09F
WAXAHACHIE     SUNNY     83  62  47 S6        30.09F
CLEBURNE       SUNNY     84  61  45 SE9       30.09F
GRANBURY       SUNNY     87  58  37 S6        30.08S
$$

TXZ083>090-098>101-113>116-127>130-139>142-154-155-242200-
WESTERN NORTH TEXAS

CITY           SKY/WX    TMP DP  RH WIND       PRES   REMARKS
WICHITA FALLS  MOSUNNY   86  61  42 SW10      30.03F
WF-KICKAPOO    SUNNY     87  57  37 SW9       30.06S
VERNON         SUNNY     90  52  27 SW15      30.04S
ABILENE        SUNNY     86  55  34 SW14G20   30.09F
ABILENE-DYESS  SUNNY     87  56  35 S10       30.07F
MINERAL WELLS  SUNNY     85  58  39 S10       30.06S
STEPHENVILLE   SUNNY     84  58  41 SW3       30.12S
COMANCHE       SUNNY     85  59  40 S7        30.09F
COLEMAN        SUNNY     86  57  37 S7        30.09F
BRADY          SUNNY     84  54  34 S8        30.10S
$$

TXZ143>147-156>162-174-175-242200-
CENTRAL TEXAS

CITY           SKY/WX    TMP DP  RH WIND       PRES   REMARKS
WACO           SUNNY     83  59  44 S8        30.09F
WACO-TSTC      SUNNY     82  59  44 S5        30.10S
WACO-MCGREGOR  MOSUNNY   84  59  42 SW8       30.10S
CORSICANA      SUNNY     82  58  43 S7        30.11F
MEXIA          SUNNY     80  60  50 S5        30.10S
HEARNE         SUNNY     81  58  44 CALM      30.11S
CAMERON        SUNNY     83  60  46 CALM      30.10S
TEMPLE         SUNNY     82  59  44 SE3       30.09F
KILLEEN        PTSUNNY   83  58  43 VRB5      30.09F
KILLEEN-SKYLRK MOSUNNY   84  59  42 SE6       30.08S
GATESVILLE     SUNNY     82  59  44 S5        30.11F
HAMILTON       MOSUNNY   84  56  37 S5        30.11S
LAMPASAS       SUNNY     83  60  45 S8        30.09F
$$

TXZ095>097-106>112-122>126-135>138-148>153-164>167-242200-
EAST TEXAS

CITY           SKY/WX    TMP DP  RH WIND       PRES   REMARKS
PARIS          MOSUNNY   79  57  47 S6        30.10F
SULPHUR SPRNGS SUNNY     80  57  45 S5        30.11F
MOUNT PLEASANT SUNNY     78  56  45 W3        30.12S
MINEOLA        SUNNY     79  57  47 CALM      30.11S
TYLER          SUNNY     80  58  46 S3        30.10F
LONGVIEW       SUNNY     78  55  44 CALM      30.11S
MARSHALL       SUNNY     79  53  40 CALM      30.13R
ATHENS         SUNNY     77  55  47 CALM      30.09F
PALESTINE      SUNNY     79  58  48 CALM      30.11F
JACKSONVILLE   SUNNY     78  56  47 CALM      30.13F
HENDERSON      SUNNY     79  55  44 N6        30.12S
NACOGDOCHES    SUNNY     79  55  44 N6        30.11S
LUFKIN         SUNNY     82  55  39 N8        30.11S
$$

SUPPLEMENTAL OBSERVATIONS (CENTRAL)

CITY           SKY/WX    TMP DP  RH WIND       PRES   REMARKS
$$

SUPPLEMENTAL OBSERVATIONS (WEST)

CITY           SKY/WX    TMP DP  RH WIND       PRES   REMARKS
$$

SUPPLEMENTAL OBSERVATIONS (EAST)

CITY           SKY/WX    TMP DP  RH WIND       PRES   REMARKS
$$

SUPPLEMENTAL OBSERVATIONS ARE A COLLECTION OF AUTOMATED INSTRUMENTS
THAT ARE MAINTAINED BY A VARIETY OF FEDERAL AND STATE AGENCIES.
CERTAIN ELEMENTS...SUCH AS HUMIDITY VALUES AND SUSTAINED WIND
SPEEDS...MAY BE APPROXIMATED.




USA.gov is the U.S. government's official web portal to all federal, state and local government web resources and services.